EW8712 Weather Reports


Display with metric or nautical units.
time (UTC)temp
F
wind
direction
speed
MPH
gust
MPH
rain 1hr
in
rain 24hr
in
rain mn
in
humidity
%
barometer
mb
20210613103140 74 240 1.0 4.0 0.00 0.00 0.00 64 1026.8
20210613101637 74 192 0.0 6.0 0.00 0.00 0.00 64 1026.9
20210613100134 73 161 0.0 7.0 0.00 0.00 0.00 63 1027.0
20210613094636 73 117 0.0 4.0 0.00 0.00 0.00 63 1027.1
20210613093114 73 233 0.0 4.0 0.00 0.00 0.00 65 1027.2
20210613091625 72 192 0.0 3.0 0.00 0.00 0.00 65 1027.2
20210613090118 71 221 0.0 4.0 0.00 0.00 0.00 68 1027.1
20210613084655 71 85 0.0 2.0 0.00 0.00 0.00 71 1027.3
20210613083121 70 342 0.0 1.0 0.00 0.00 0.00 76 1027.4
20210613081609 69 157 0.0 0.0 0.00 0.00 0.00 73 1027.6
20210613080051 67 105 0.0 1.0 0.00 0.00 0.00 78 1027.7
20210613074559 66 4 0.0 2.0 0.00 0.00 0.00 81 1027.7
20210613073051 64 40 0.0 2.0 0.00 0.00 0.00 83 1027.7
20210613071533 63 340 0.0 0.0 0.00 0.00 0.00 89 1027.6
20210613070046 60 322 0.0 0.0 0.00 0.00 0.00 91 1027.6
20210613064536 59 290 0.0 1.0 0.00 0.00 0.00 93 1027.6
20210613063033 58 35 0.0 1.0 0.00 0.00 0.00 95 1027.8
20210613061515 56 40 0.0 0.0 0.00 0.00 0.00 96 1027.7
20210613060003 54 42 0.0 0.0 0.00 0.00 0.00 97 1027.7
20210613054644 53 42 0.0 0.0 0.00 0.00 0.00 97 1027.8
20210613053144 52 42 0.0 0.0 0.00 0.00 0.00 96 1027.8
20210613051645 52 42 0.0 0.0 0.00 0.00 0.00 97 1027.7
20210613050238 51 42 0.0 0.0 0.00 0.00 0.00 97 1027.6
20210613044700 50 42 0.0 0.0 0.00 0.00 0.00 97 1027.5
20210613043157 49 42 0.0 0.0 0.00 0.00 0.00 97 1027.4
20210613041648 47 42 0.0 0.0 0.00 0.00 0.00 96 1027.4
20210613040158 47 42 0.0 0.0 0.00 0.00 0.00 96 1027.2
20210613034625 47 42 0.0 0.0 0.00 0.00 0.00 96 1026.9
20210613033137 48 42 0.0 0.0 0.00 0.00 0.00 96 1026.8
20210613031615 48 42 0.0 0.0 0.00 0.00 0.00 96 1026.6
20210613030135 48 42 0.0 0.0 0.00 0.00 0.00 96 1026.6
20210613024607 49 42 0.0 0.0 0.00 0.00 0.00 96 1026.6
20210613023134 49 42 0.0 0.0 0.00 0.00 0.00 95 1026.5
20210613021543 49 42 0.0 0.0 0.00 0.00 0.00 95 1026.5
20210613020054 49 42 0.0 0.0 0.00 0.00 0.00 94 1026.6
20210613014617 49 51 0.0 0.0 0.00 0.00 0.00 95 1026.5
20210613013132 49 51 0.0 0.0 0.00 0.00 0.00 94 1026.6
20210613011603 50 51 0.0 0.0 0.00 0.00 0.00 94 1026.6
20210613010032 51 51 0.0 0.0 0.00 0.00 0.00 93 1026.6
20210613004630 51 51 0.0 0.0 0.00 0.00 0.00 93 1026.6
20210613003101 52 51 0.0 0.0 0.00 0.00 0.00 94 1026.7
20210613001516 52 48 0.0 0.0 0.00 0.00 0.00 93 1026.7
20210613000013 52 48 0.0 0.0 0.00 0.00 0.00 93 1026.7
20210612234520 53 48 0.0 0.0 0.00 0.00 0.00 93 1026.7
20210612233021 53 4 0.0 0.0 0.00 0.00 0.00 92 1026.9
20210612231505 53 4 0.0 0.0 0.00 0.00 0.00 92 1027.0
20210612230007 53 3 0.0 0.0 0.00 0.00 0.00 91 1027.1
20210612224709 53 4 0.0 0.0 0.00 0.00 0.00 90 1027.1
20210612223153 54 4 0.0 0.0 0.00 0.00 0.00 89 1027.0
20210612221701 55 4 0.0 0.0 0.00 0.00 0.00 88 1026.9
20210612220248 56 4 0.0 0.0 0.00 0.00 0.00 86 1026.7
20210612214634 57 4 0.0 0.0 0.00 0.00 0.00 85 1026.7
20210612213119 58 17 0.0 1.0 0.00 0.00 0.00 84 1026.6
20210612211627 58 303 0.0 4.0 0.00 0.00 0.00 84 1026.5
20210612210100 58 283 0.0 6.0 0.00 0.00 0.00 83 1026.2
20210612204642 59 18 0.0 0.0 0.00 0.00 0.00 82 1026.1
20210612203117 61 18 0.0 0.0 0.00 0.00 0.00 79 1025.9
20210612201637 63 15 0.0 5.0 0.00 0.00 0.00 76 1025.6
20210612200142 65 319 0.0 3.0 0.00 0.00 0.00 73 1025.6
20210612194615 66 318 0.0 1.0 0.00 0.00 0.00 71 1025.4
20210612193126 68 281 0.0 1.0 0.00 0.00 0.00 68 1025.4
20210612191638 68 308 1.0 5.0 0.00 0.00 0.00 67 1025.2
20210612190115 70 310 0.0 6.0 0.00 0.00 0.00 66 1025.2
20210612184623 71 323 0.0 4.0 0.00 0.00 0.00 65 1025.0
20210612183112 71 25 0.0 5.0 0.00 0.00 0.00 63 1025.0
20210612181555 70 302 3.0 7.0 0.00 0.00 0.00 65 1025.0
20210612180124 70 309 4.0 9.0 0.00 0.00 0.00 64 1024.9
20210612174553 70 278 4.0 9.0 0.00 0.00 0.00 65 1024.8
20210612173122 71 315 4.0 10.0 0.00 0.00 0.00 64 1024.8
20210612171606 71 298 4.0 10.0 0.00 0.00 0.00 63 1024.7
20210612170132 71 290 4.0 10.0 0.00 0.00 0.00 62 1024.7
20210612164625 72 354 3.0 7.0 0.00 0.00 0.00 62 1024.5
20210612163037 71 317 3.0 10.0 0.00 0.00 0.00 61 1024.6
20210612161530 71 298 3.0 7.0 0.00 0.00 0.00 61 1024.6
20210612160048 71 320 4.0 9.0 0.00 0.00 0.00 59 1024.6
20210612154540 71 306 4.0 12.0 0.00 0.00 0.00 59 1024.6
20210612153106 71 300 4.0 9.0 0.00 0.00 0.00 58 1024.7
20210612151526 71 70 3.0 8.0 0.00 0.00 0.00 59 1024.6
20210612150026 71 6 1.0 9.0 0.00 0.00 0.00 63 1024.6
20210612144611 70 278 2.0 11.0 0.00 0.00 0.00 59 1024.6
20210612143050 70 323 4.0 11.0 0.00 0.00 0.00 64 1024.7
20210612141518 70 297 5.0 9.0 0.00 0.00 0.00 60 1024.6
20210612140101 69 266 3.0 12.0 0.00 0.00 0.00 67 1024.5
20210612134513 69 29 2.0 9.0 0.00 0.00 0.00 65 1024.6
20210612133007 69 322 0.0 8.0 0.00 0.00 0.00 69 1024.4
20210612131520 69 282 1.0 7.0 0.00 0.00 0.00 68 1024.4
20210612130152 68 300 1.0 9.0 0.00 0.00 0.00 70 1024.5
20210612124651 68 285 1.0 8.0 0.00 0.00 0.00 70 1024.5
20210612123220 67 317 3.0 9.0 0.00 0.00 0.00 69 1024.5
20210612121623 68 338 6.0 10.0 0.00 0.00 0.00 69 1024.5
20210612120159 68 53 3.0 9.0 0.00 0.00 0.00 67 1024.4
20210612114612 67 268 4.0 10.0 0.00 0.00 0.00 70 1024.4
20210612113153 67 342 2.0 10.0 0.00 0.00 0.00 69 1024.3
20210612111607 68 328 3.0 9.0 0.00 0.00 0.00 69 1024.5
20210612110146 67 328 3.0 9.0 0.00 0.00 0.00 70 1024.3
20210612104557 67 285 0.0 9.0 0.00 0.00 0.00 73 1024.2